When you browse on this site, cookies collect data to enhance your experience and personalize the content and advertising you see.
Visit our Privacy Policy to learn more. By continuing to use the site, you agree to this use of cookies and data.
  • In United Kingdom
  • List of Countries
  • For 7 days
  • Water Temperature
  • Satellite Maps
  • Weather Map
  • Weather Widgets
  • user-avatar
    Login

    Hourly Weather Hasselt

    Today, 19 May, Sunday

    Time Temperature Precipitation Wind Pressure Humidity
    00:00 +14°C° 0 mm 1 mps 751 mmHg 92%
    01:00 +14°C° 0.4 mm 1 mps 751 mmHg 93%
    02:00 +14°C° 0.4 mm 1 mps 751 mmHg 94%
    03:00 +13°C° 0.4 mm 1 mps 751 mmHg 95%
    04:00 +14°C° 0.2 mm 1 mps 751 mmHg 95%
    05:00 +14°C° 0.2 mm 2 mps 751 mmHg 95%
    06:00 +14°C° 0 mm 1 mps 751 mmHg 93%
    07:00 +15°C° 0.4 mm 2 mps 751 mmHg 91%
    08:00 +16°C° 0.4 mm 2 mps 751 mmHg 90%
    09:00 +16°C° 0.4 mm 2 mps 751 mmHg 88%
    10:00 +18°C° 0.7 mm 2 mps 750 mmHg 83%
    11:00 +19°C° 0.7 mm 2 mps 750 mmHg 79%
    12:00 +20°C° 0.7 mm 3 mps 750 mmHg 75%
    13:00 +20°C° 0.8 mm 3 mps 750 mmHg 74%
    14:00 +20°C° 0.8 mm 3 mps 750 mmHg 73%
    15:00 +20°C° 0.8 mm 4 mps 750 mmHg 71%
    16:00 +20°C° 0.5 mm 3 mps 750 mmHg 75%
    17:00 +19°C° 0.5 mm 3 mps 750 mmHg 79%
    18:00 +18°C° 0.5 mm 3 mps 750 mmHg 83%
    19:00 +17°C° 0.4 mm 3 mps 750 mmHg 87%
    20:00 +16°C° 0.4 mm 3 mps 750 mmHg 91%
    21:00 +13°C° 0.4 mm 3 mps 750 mmHg 94%
    22:00 +12°C° 0.2 mm 3 mps 750 mmHg 96%
    23:00 +13°C° 0.2 mm 2 mps 750 mmHg 97%

    Tomorrow, 20 May, Monday

    Time Temperature Precipitation Wind Pressure Humidity
    00:00 +12°C° 0.2 mm 2 mps 751 mmHg 98%
    01:00 +12°C° 0 mm 2 mps 750 mmHg 98%
    02:00 +12°C° 0 mm 2 mps 750 mmHg 98%
    03:00 +12°C° 0 mm 2 mps 750 mmHg 98%
    04:00 +12°C° 0 mm 2 mps 750 mmHg 97%
    05:00 +13°C° 0 mm 2 mps 751 mmHg 96%
    06:00 +13°C° 0 mm 2 mps 751 mmHg 96%
    07:00 +13°C° 0 mm 2 mps 751 mmHg 94%
    08:00 +14°C° 0 mm 2 mps 751 mmHg 93%
    09:00 +14°C° 0 mm 2 mps 752 mmHg 91%
    10:00 +14°C° 0 mm 3 mps 752 mmHg 89%
    11:00 +14°C° 0 mm 3 mps 752 mmHg 87%
    12:00 +15°C° 0 mm 4 mps 752 mmHg 85%
    13:00 +15°C° 0 mm 4 mps 752 mmHg 84%
    14:00 +15°C° 0 mm 4 mps 752 mmHg 83%
    15:00 +17°C° 0 mm 4 mps 752 mmHg 82%
    16:00 +15°C° 0 mm 4 mps 752 mmHg 83%
    17:00 +15°C° 0 mm 4 mps 752 mmHg 84%
    18:00 +15°C° 0 mm 4 mps 752 mmHg 85%
    19:00 +14°C° 0 mm 4 mps 753 mmHg 86%
    20:00 +14°C° 0 mm 4 mps 753 mmHg 88%
    21:00 +13°C° 0 mm 4 mps 753 mmHg 89%
    22:00 +13°C° 0 mm 4 mps 754 mmHg 90%
    23:00 +13°C° 0 mm 4 mps 754 mmHg 92%

    Day after tomorrow, 21 May, Tuesday

    Time Temperature Precipitation Wind Pressure Humidity
    00:00 +13°C° 0 mm 4 mps 754 mmHg 93%
    01:00 +13°C° 0 mm 4 mps 754 mmHg 93%
    02:00 +13°C° 0 mm 4 mps 754 mmHg 93%
    03:00 +13°C° 0 mm 4 mps 754 mmHg 94%
    04:00 +13°C° 0 mm 4 mps 754 mmHg 93%
    05:00 +13°C° 0 mm 4 mps 754 mmHg 93%
    06:00 +13°C° 0 mm 4 mps 755 mmHg 92%
    07:00 +13°C° 0 mm 4 mps 755 mmHg 90%
    08:00 +14°C° 0 mm 4 mps 755 mmHg 88%
    09:00 +14°C° 0 mm 4 mps 756 mmHg 86%
    10:00 +15°C° 0.2 mm 4 mps 756 mmHg 85%
    11:00 +17°C° 0.2 mm 4 mps 756 mmHg 83%
    12:00 +18°C° 0.2 mm 4 mps 756 mmHg 81%
    13:00 +18°C° 0.8 mm 4 mps 756 mmHg 79%
    14:00 +19°C° 0.8 mm 4 mps 756 mmHg 77%
    15:00 +19°C° 0.8 mm 4 mps 757 mmHg 75%
    16:00 +19°C° 0.7 mm 4 mps 757 mmHg 79%
    17:00 +18°C° 0.7 mm 4 mps 757 mmHg 83%
    18:00 +17°C° 0.7 mm 4 mps 757 mmHg 87%
    19:00 +16°C° 0 mm 3 mps 758 mmHg 90%
    20:00 +13°C° 0 mm 3 mps 758 mmHg 92%
    21:00 +12°C° 0 mm 3 mps 759 mmHg 94%
    22:00 +11°C° 0 mm 3 mps 759 mmHg 95%
    23:00 +10°C° 0 mm 2 mps 759 mmHg 96%

    22 May, Wednesday

    Time Temperature Precipitation Wind Pressure Humidity
    00:00 +9°C° 0 mm 2 mps 760 mmHg 96%
    01:00 +9°C° 0 mm 2 mps 760 mmHg 97%
    02:00 +9°C° 0 mm 2 mps 760 mmHg 98%
    03:00 +8°C° 0 mm 2 mps 760 mmHg 98%
    04:00 +9°C° 0 mm 2 mps 760 mmHg 97%
    05:00 +10°C° 0 mm 2 mps 761 mmHg 95%
    06:00 +12°C° 0 mm 2 mps 761 mmHg 94%
    07:00 +13°C° 0 mm 2 mps 761 mmHg 87%
    08:00 +15°C° 0 mm 2 mps 761 mmHg 80%
    09:00 +16°C° 0 mm 2 mps 761 mmHg 73%
    10:00 +17°C° 0 mm 2 mps 761 mmHg 65%
    11:00 +19°C° 0 mm 3 mps 762 mmHg 58%
    12:00 +20°C° 0 mm 3 mps 762 mmHg 50%
    13:00 +20°C° 0 mm 3 mps 762 mmHg 50%
    14:00 +20°C° 0 mm 3 mps 761 mmHg 50%
    15:00 +20°C° 0 mm 4 mps 761 mmHg 50%
    16:00 +19°C° 0 mm 3 mps 761 mmHg 55%
    17:00 +19°C° 0 mm 3 mps 761 mmHg 60%
    18:00 +18°C° 0 mm 3 mps 762 mmHg 64%
    19:00 +16°C° 0 mm 2 mps 762 mmHg 69%
    20:00 +14°C° 0 mm 2 mps 762 mmHg 74%
    21:00 +12°C° 0 mm 1 mps 762 mmHg 78%
    22:00 +11°C° 0 mm 1 mps 762 mmHg 80%
    23:00 +11°C° 0 mm 1 mps 762 mmHg 82%

    23 May, Thursday

    Time Temperature Precipitation Wind Pressure Humidity
    00:00 +9°C° 0 mm 0 mps 763 mmHg 84%
    01:00 +10°C° 0 mm 1 mps 762 mmHg 85%
    02:00 +9°C° 0 mm 1 mps 762 mmHg 86%
    03:00 +9°C° 0 mm 1 mps 762 mmHg 86%
    04:00 +10°C° 0 mm 1 mps 762 mmHg 83%
    05:00 +12°C° 0 mm 1 mps 762 mmHg 79%
    06:00 +13°C° 0 mm 1 mps 762 mmHg 76%
    07:00 +15°C° 0 mm 1 mps 762 mmHg 69%
    08:00 +18°C° 0 mm 1 mps 762 mmHg 63%
    09:00 +20°C° 0 mm 1 mps 762 mmHg 57%
    10:00 +21°C° 0 mm 1 mps 762 mmHg 53%
    11:00 +22°C° 0 mm 1 mps 761 mmHg 49%
    12:00 +23°C° 0 mm 1 mps 761 mmHg 45%
    13:00 +23°C° 0 mm 1 mps 760 mmHg 45%
    14:00 +23°C° 0 mm 1 mps 760 mmHg 45%
    15:00 +23°C° 0 mm 1 mps 759 mmHg 45%
    16:00 +22°C° 0 mm 1 mps 759 mmHg 50%
    17:00 +22°C° 0 mm 1 mps 759 mmHg 55%
    18:00 +21°C° 0 mm 1 mps 758 mmHg 60%
    19:00 +19°C° 0 mm 1 mps 758 mmHg 62%
    20:00 +18°C° 0 mm 1 mps 758 mmHg 63%
    21:00 +15°C° 0 mm 2 mps 758 mmHg 65%
    22:00 +15°C° 0 mm 2 mps 758 mmHg 68%
    23:00 +15°C° 0 mm 2 mps 757 mmHg 72%

    24 May, Friday

    Time Temperature Precipitation Wind Pressure Humidity
    00:00 +13°C° 0 mm 3 mps 757 mmHg 75%
    01:00 +13°C° 0.2 mm 3 mps 757 mmHg 79%
    02:00 +13°C° 0.2 mm 3 mps 756 mmHg 82%
    03:00 +13°C° 0.2 mm 3 mps 756 mmHg 86%
    04:00 +13°C° 0.4 mm 4 mps 755 mmHg 87%
    05:00 +14°C° 0.4 mm 4 mps 755 mmHg 88%
    06:00 +14°C° 0.4 mm 4 mps 754 mmHg 88%
    07:00 +14°C° 0.9 mm 4 mps 754 mmHg 90%
    08:00 +14°C° 0.9 mm 4 mps 754 mmHg 91%
    09:00 +14°C° 0.9 mm 4 mps 753 mmHg 92%
    10:00 +13°C° 0.9 mm 4 mps 753 mmHg 92%
    11:00 +13°C° 0.9 mm 5 mps 752 mmHg 91%
    12:00 +13°C° 0.9 mm 6 mps 752 mmHg 91%
    13:00 +13°C° 0.8 mm 6 mps 751 mmHg 91%
    14:00 +13°C° 0.8 mm 6 mps 751 mmHg 92%
    15:00 +13°C° 0.8 mm 6 mps 750 mmHg 92%
    16:00 +13°C° 0.3 mm 6 mps 750 mmHg 90%
    17:00 +13°C° 0.3 mm 6 mps 749 mmHg 89%
    18:00 +13°C° 0.3 mm 6 mps 749 mmHg 87%
    19:00 +12°C° 0 mm 5 mps 748 mmHg 89%
    20:00 +10°C° 0 mm 5 mps 748 mmHg 92%
    21:00 +11°C° 0 mm 4 mps 748 mmHg 94%
    22:00 +11°C° 0 mm 4 mps 748 mmHg 94%
    23:00 +10°C° 0 mm 5 mps 748 mmHg 94%
    Show more